Regional Weather Roundup
Issued by NWS Newport/Morehead, NC

Current Version | Previous Version | Text Only | Print | Product List | Glossary Off
Versions: 1 2 3 4 5 6 7 8 9 10 11 12 13 14 15 16 17 18 19 20 21 22 23 24 25 26 27 28 29 30 31 32 33 34 35 36 37 38 39 40 41 42 43 44 45 46 47 48 49 50
000 ASUS42 KMHX 011322 RWRMHX WEATHER ROUNDUP FOR EASTERN NORTH CAROLINA NATIONAL WEATHER SERVICE NEWPORT/MOREHEAD CITY NC 900 AM EDT MON SEP 01 2014 NOTE: "FAIR" INDICATES FEW OR NO CLOUDS BELOW 12,000 FEET WITH NO SIGNIFICANT WEATHER AND/OR OBSTRUCTIONS TO VISIBILITY NCZ015>017-031-032-045>047-102-103-011400- NORTH COAST CITY SKY/WX TMP DP RH WIND PRES REMARKS EDENTON MOSUNNY 79 76 91 SW8 30.11S ELIZABETH CITY MOSUNNY 80 75 84 SW10 30.10F KITTY HAWK MOSUNNY 81 76 85 W8 30.10S MANTEO PTSUNNY 81 76 83 SW8 30.12S $$ NCZ045>047-081-094-103-104-011400- CENTRAL COAST CITY SKY/WX TMP DP RH WIND PRES REMARKS FRISCO MOSUNNY 81 77 88 SW9G17 30.12S SWANQUARTER N/A 82 N/A N/A SW8 30.09S $$ NCZ095-097-098-100-101-011400- SOUTHERN COAST CITY SKY/WX TMP DP RH WIND PRES REMARKS BEAUFORT MOSUNNY 84 78 82 SW10 30.12S CEDAR ISLAND N/A 84 N/A N/A SW9 30.15S JACKSONVILLE SUNNY 80 75 84 W8 30.13S NEWPORT NOT AVBL PINEY ISLAND MOSUNNY 80 78 94 W8 30.12S WILMINGTON SUNNY 82 76 81 W9 30.13S $$ NCZ011>013-027>030-043-044-078>080-089-090>093-098-011400- COASTAL PLAIN CITY SKY/WX TMP DP RH WIND PRES REMARKS AHOSKIE PTSUNNY 79 74 84 S5 30.09F CLINTON MOSUNNY 78 76 91 CALM 30.13S ELIZABETHTOWN SUNNY 80 74 80 SW3 30.13S GOLDSBORO MOSUNNY 77 77 99 SW6 30.10F GREENVILLE MOSUNNY 79 77 94 SW8 30.13S HAVELOCK MOSUNNY 82 76 81 W7 30.14R KENANSVILLE MOSUNNY 78 74 87 SW3 30.14S KINSTON PTSUNNY 81 75 83 SW7 30.13S NEW BERN MOSUNNY 83 76 79 SW5 30.14S RICHLANDS MOSUNNY 82 73 74 SW6 30.13S ROANOKE RAPIDS NOT AVBL ROCKY MOUNT PTSUNNY 78 74 87 SW8 30.11S WASHINGTON SUNNY 80 75 84 SW9 30.12S WHITEVILLE SUNNY 80 75 84 CALM 30.12F $$ AMZ130-135-150-152-154-156-158-170-250-252-270-ANZ085-086-088-633-658-670-011400- MARINE OBSERVATIONS STATION/POSITION TIME TEMP WIND PRES WAVE SWELL AIR SEA DIR/SP/G HT/PER HT/PER (UTC) (F) (DEG/KT/KT) (MB) (FT/S) (FT/S) CHESAPEAKE LIGHT 1300 79 220/ 12/ 13 1019.1 BUOY 44014 1300 78 77 220/ 10/ 12 1018.9 3/ 8 2/ 8 DUCK 1300 79 75 230/ 14/ 18 1018.7 2E DUCK 1300 N/A 2/ 9 OREGON INLET 1300 80 82 230/ 10/ 12 1019.7 BUOY 44095 1300 78 N/A 3/10 20E OREGON INLET NOT AVBL HATTERAS CG 1300 83 83 230/ 8/ 13 1020.5 DIAMOND BUOY 1300 82 230/ 12/ 14 1020.2 3/ 8 2/ 8 CAPE LOOKOUT 1300 82 210/ 7/ 9 1020.0 BEAUFORT LAB 1300 83 83 230/ 4/ 8 1019.7 30 SE NEW RIVER 1300 81 82 220/ 8/ 8 1020.6 3/ 8 3/ 8 5 SE WRIGHTSVILL 1300 78 82 280/ 8/ 8 N/A BUOY 41002 1208 81 83 190/ 4/ 6 1021.9 3/ 8 3/ 8 BUOY 41004 1300 83 83 250/ 2/ 2 1019.6 3/ 9 2/ 9 $$

USA.gov is the U.S. government's official web portal to all federal, state and local government web resources and services.